Regional Weather Roundup
Issued by NWS

Home | Current Version | Previous Version | Text Only | Print | Product List | Glossary On
Versions: 1 2 3 4 5 6 7 8 9 10 11 12 13 14 15 16 17 18 19 20 21 22 23 24 25 26 27 28 29 30 31 32 33 34 35 36 37 38 39 40 41 42 43 44 45 46 47 48 49 50
000
ASUS43 KDTX 221701
RWRMI
MICHIGAN HOURLY REGIONAL WEATHER ROUNDUP
NATIONAL WEATHER SERVICE DETROIT/PONTIAC MI
1200 PM EST MON JAN 22 2018

NOTE: "FAIR" INDICATES FEW OR NO CLOUDS BELOW 12,000 FEET WITH NO
SIGNIFICANT WEATHER AND/OR OBSTRUCTION TO VISIBILITY.

MIZ047>049-052>055-059>063-066>070-074>076-081>083-221800-
SOUTHEAST LOWER MICHIGAN

CITY           SKY/WX    TMP DP  RH WIND       PRES   REMARKS
ADRIAN         FAIR      53  45  74 SW20G25   29.75F
ALMA           LGT RAIN  35  35 100 E14       29.73F WCI  26
ANN ARBOR      FAIR      51  48  89 SE8       29.75F
BAD AXE        LGT SNOW  35  35 100 E9        29.81F WCI  28
CARO           LGT SNOW  36  36  99 E7        29.78F WCI  30
DETROIT CITY   FAIR      47  45  93 SE8       29.80F
DETROIT        CLOUDY    50  45  83 S9        29.78F
GROSSE ILE     PTSUNNY   40  39  96 S7        29.78F
HILLSDALE      LGT RAIN  48  45  87 S16G23    29.71F
HOWELL         FAIR      48  47  95 S10       29.72F

CITY           SKY/WX    TMP DP  RH WIND       PRES   REMARKS
JACKSON        PTSUNNY   51  46  83 S17       29.71F
LAMBERTVILLE   FAIR      55  46  72 S10G18    29.76F
LANSING        LGT RAIN  40  40 100 E7        29.72F VSB 1
LAPEER         CLOUDY    39  38  99 E3        29.78F
MONROE         FAIR      53  46  78 S15       29.76F
MT. CLEMENS    PTSUNNY   43  43 100 SE9       29.80F FOG
PONTIAC        CLOUDY    43  43 100 SE8       29.75F FOG
PORT HOPE        N/A     34  33  96 E12       29.84F WCI  25
PORT HURON     CLOUDY    45  43  93 S8        29.82F FOG
TRI CITIES     RAIN      35  35 100 NE12      29.76F FOG     WCI  27
MIDLAND        MIX PCPN  35  35  99 E16G22    29.76F WCI  25
TROY           FAIR      44  43  98 E3        29.80F FOG
SAGINAW HB     MIX PCPN  34  34 100 NE7       29.76F WCI  28
$$
MIZ043>046-050>051-056>058-064>065-071>073-077>080-221800-
SOUTHWEST LOWER MICHIGAN

CITY           SKY/WX    TMP DP  RH WIND       PRES   REMARKS
BATTLE CREEK   LGT RAIN  50  47  89 S14       29.69F
BENTON HARBOR  CLOUDY    53  47  79 S12G28    29.63F
BIG RAPIDS     LGT SNOW  36  33  88 E13       29.72R VSB 1   WCI  27
COLDWATER      LGT RAIN  51  51 100 S10G17    29.69F
FREMONT        LGT RAIN  37  34  90 E10G21    29.67F WCI  29
HOLLAND        CLOUDY    41  40  96 E12       29.65F
GRAND RAPIDS   LGT RAIN  38  38 100 E12       29.68F FOG     WCI  30
IONIA          RAIN      36  36 100 E10       29.70F WCI  28
KALAMAZOO      CLOUDY    50  47  89 S12G22    29.68F
LUDINGTON      LGT RAIN  37  37  98 E13G21    29.65S WCI  29
MARSHALL       LGT RAIN  48  48  98 S10       29.69F
MOUNT PLEASANT LGT RAIN  36  35  94 E10G20    29.74F WCI  29
MUSKEGON       CLOUDY    39  37  92 E8        29.66F FOG     WCI  33
SOUTH HAVEN    CLOUDY    51  48  90 S10G17    29.64F
$$
MIZ016>042-221800-
NORTHERN LOWER MICHIGAN

CITY           SKY/WX    TMP DP  RH WIND       PRES   REMARKS
ALPENA         LGT SNOW  33  33 100 E16G28    29.89F FOG     WCI  23
BEAVER ISLAND  LGT SNOW  30  28  90 E17G32    29.88F WCI  18
BELLAIRE       LGT SNOW  34  34  98 NE9G16    29.79F WCI  27
CADILLAC       LGT SNOW  33  33  99 E18       29.68F WCI  22
CHARLEVOIX     LGT SNOW  32  32 100 E15G23    29.84F WCI  22
FRANKFORT      LGT RAIN  37  36  96 E10G21    29.68F WCI  30
GAYLORD          N/A     31  31 100 MISG      29.80F FOG
GRAYLING       LGT SNOW  33  31  94 E16G23    29.79F WCI  22
HARBOR SPRINGS LGT SNOW  30  29  96 E22G32    29.84F WCI  17
HOUGHTON LAKE  RAIN      34  32  92 E16G24    29.76F FOG     WCI  24
MANISTEE       RAIN      37  35  92 E14       29.68F WCI  28
OSCODA         LGT SNOW  34  34  99 E18       29.85F WCI  23
PELLSTON       LGT SNOW  30  28  92 E17G23    29.89F FOG     WCI  18
ROGERS CITY    LGT SNOW  30  28  94 E15G23    29.93F WCI  19
TRAVERSE CITY  LGT RAIN  37  34  89 E9G22     29.74F FOG     WCI  30
$$
MIZ007>008-015-221800-
EASTERN UPPER MICHIGAN

CITY           SKY/WX    TMP DP  RH WIND       PRES   REMARKS
KINROSS        CLOUDY    27  22  81 E16       29.95F WCI  15
MACKINAC ISLAN CLOUDY    28  24  88 E17G29    29.92F WCI  15
NEWBERRY       CLOUDY    28  24  87 NE13G20   29.92F WCI  17
S. S. MARIE    CLOUDY    29  21  72 E10G17    29.96F WCI  20
$$
MIZ004>006-011>014-085-221800-
CENTRAL UPPER MICHIGAN

CITY           SKY/WX    TMP DP  RH WIND       PRES   REMARKS
ESCANABA       LGT SNOW  32  29  88 NE15G21   29.86F FOG     WCI  22
MENOMINEE      LGT SNOW  32  31  96 NE28G36   29.77F VSB 1   WCI  18
SAWYER-GWINN   CLOUDY    28  27  93 NE13      29.89F FOG     WCI  18
$$
MIZ001>003-009>011-084-221800-
WESTERN UPPER MICHIGAN

CITY           SKY/WX    TMP DP  RH WIND       PRES   REMARKS
IRON MOUNTAIN  LGT SNOW  32  29  88 NE9       29.81F VSB 1   WCI  24
HOUGHTON       CLOUDY    26  22  84 NE13      29.95F WCI  15
COPPER HARBOR    N/A     27  23  85 E12G21    30.01F WCI  17
IRONWOOD       MIX PCPN  27  25  92 NE14      29.88F FOG     WCI  16
$$

ABBREVIATIONS USED IN REMARKS
   TC - TEMPERATURE IN CELSIUS
  WCI - WIND CHILL INDEX
   HX - HEAT INDEX
  VSB - VISIBILITY




USA.gov is the U.S. government's official web portal to all federal, state and local government web resources and services.